Location: Hope
(40.9110°N, 74.9680°W)
Time: 08:43:28
(UTC-05:00)

Envisat - Pass Details

Date: 27 January 2019
Orbit: 764 x 766 km, 98.2° (Epoch: 23 February)

Event Time Altitude Azimuth Distance (km) Brightness Sun altitude
Rises 18:40:27 0° 165° (SSE) 3,218 6.2 -17.0°
Reaches altitude 10° 18:42:44 10° 165° (SSE) 2,296 5.4 -17.4°
Maximum altitude 18:47:49 89° 76° (ENE) 772 2.9 -18.4°
Drops below altitude 10° 18:52:55 10° 347° (NNW) 2,311 5.5 -19.3°
Sets 18:55:14 0° 348° (NNW) 3,242 6.3 -19.8°
